Vertical_Velocity
-1 2 1 -1 3 7 4 1 4 7 2 7 3 1 -4 -4 -3 -3 -3 -0 0 5 -1 -1 -3 1 2 -0 2 1 -2 -0 1 1 2 3 1 2 0 0 0 0 0
0 -1 0 -2 -2 -1 5 7 6 2 4 3 2 1 -6 0 2 -2 -2 -1 -0 -1 6 0 -2 0 1 2 0 1 -2 -4 0 -1 -1 0 0 -0 0 0 1 0 -0
-2 4 2 -0 -1 0 1 1 18 18 -1 6 1 -2 -1 -3 -4 -2 -1 -2 -0 0 1 2 1 0 5 -2 1 1 1 3 -1 -1 -0 -1 -1 -1 -1 -0 -1 1 2
-1 -2 -1 1 1 -0 -0 1 4 -5 26 4 -10 24 -3 11 1 -1 -4 1 -4 2 -1 2 -2 0 -2 4 -0 2 -2 -2 -1 0 1 1 1 -1 -2 -0 -1 -1 -1
-1 -3 -6 -2 0 0 0 1 1 -0 1 1 4 12 -1 40 8 -0 1 3 3 -1 1 -1 2 -2 -2 2 -2 -2 2 -1 -3 -2 0 1 1 1 0 -1 -1 -0 -1
0 -2 0 -3 -2 -2 1 -1 4 -3 7 2 2 -2 5 6 -4 -5 5 -4 0 3 -1 1 3 1 -2 -0 0 2 -1 2 -1 -3 -3 -2 1 1 3 1 -0 0 0
5 2 -1 -3 -5 0 0 1 2 2 7 -5 -13 1 -3 -2 2 3 6 16 9 1 -3 0 -2 2 3 -1 -1 1 -0 1 -0 1 -3 -5 -1 -1 1 1 -0 1 2
-5 -3 2 1 0 -3 -1 -1 -0 1 3 0 -4 -14 -4 0 -4 6 -5 -1 14 0 1 1 -8 5 3 -1 -1 0 -0 2 2 -1 1 -1 -4 -2 0 1 -1 1 2
-4 -9 -7 -3 -2 -5 3 2 0 1 4 4 -0 -8 -13 2 -3 3 6 1 5 1 5 2 -3 -3 4 0 -0 -2 -1 2 2 -2 -1 0 -3 -3 -1 -1 0 -0 1
3 -1 -3 -1 -4 -4 -4 2 1 3 -1 11 0 -3 -11 0 -12 -8 4 4 3 -3 2 8 5 -6 2 3 2 1 -1 2 -0 -0 1 1 -3 -2 -1 -2 -0 -0 -0
-4 -3 -3 -4 -0 -2 -2 -4 4 -1 -2 3 -4 2 2 -2 -9 -3 2 4 -3 3 5 -3 11 2 -5 2 5 2 1 -1 2 1 -0 2 2 1 -2 -1 3 4 1
-2 -5 -7 -4 -2 -0 -1 2 -1 -1 3 3 3 -3 -3 -4 2 -8 2 -1 7 -5 -8 -3 -1 11 4 4 0 6 -2 2 2 0 -0 -1 0 4 0 -1 -1 0 2
-4 -6 -7 -5 -1 -1 1 2 2 -3 4 1 8 -0 1 -3 4 -1 -7 10 -6 5 -0 -5 1 2 11 5 3 3 -3 2 3 2 -1 7 -1 3 6 2 -1 -1 0
1 0 -1 -2 -3 -1 -0 -4 -1 2 4 3 7 2 3 2 3 2 -2 9 -6 -3 -2 12 0 2 8 5 4 3 -0 -4 2 2 -1 1 -4 -1 1 7 5 -0 -1
1 1 6 6 3 4 3 -2 0 2 -0 7 6 3 -3 -2 -4 6 2 -2 4 -3 -5 10 -7 1 9 11 18 -5 -3 8 1 -1 -4 -1 -3 3 -0 1 6 4 4
-1 -1 -0 0 1 0 0 2 -1 0 -1 -5 -4 -4 -5 -1 -2 -1 -3 2 -4 -2 -0 0 2 1 -1 8 50 2 -1 0 0 4 3 -0 0 -2 0 1 3 5 7
-0 -2 1 2 -0 0 4 4 3 -0 6 1 2 1 5 8 5 2 2 3 -4 -3 -2 -1 2 -1 3 4 5 -5 4 -1 9 5 2 3 2 1 0 1 -0 -1 2
0 2 2 2 1 2 3 3 1 1 2 1 2 -1 -3 -1 3 3 2 4 9 10 1 5 1 -1 4 18 7 8 3 -2 -3 7 -2 -0 1 4 -1 -4 4 0 1
0 -0 2 2 2 1 1 2 2 2 -0 1 1 3 0 6 5 2 1 -0 3 28 17 2 17 13 13 4 17 16 9 5 5 -1 -1 -4 -1 5 3 -1 1 -0 -0
2 -1 0 -0 -0 1 1 3 2 1 2 2 3 2 3 -1 1 -5 -0 -1 4 -7 6 -1 28 12 -1 10 7 4 7 2 12 2 0 3 -9 3 0 3 -4 2 1
3 4 2 4 3 1 2 2 4 2 1 1 0 3 2 3 3 3 4 3 1 1 -2 2 -2 10 -4 -4 -4 -5 2 5 -9 -3 -1 4 13 5 1 1 1 -2 6
1 -0 -4 -2 -2 0 3 3 4 2 2 5 7 1 3 6 1 -2 0 -2 2 -1 -5 5 -3 -1 3 -1 -2 1 5 2 -10 2 2 -3 -3 5 9 0 6 -3 -1
0 3 1 1 1 -0 1 -1 1 -0 1 4 3 4 6 4 6 7 4 7 3 5 5 5 -2 6 -1 2 -1 0 -1 -2 -6 -7 4 -6 -1 1 -1 -5 4 2 1
1 1 3 2 -0 2 1 1 1 1 0 -1 0 3 4 3 1 2 -0 -1 -0 -1 -7 -3 2 7 7 -4 0 0 1 3 -1 -0 2 -3 2 -1 3 -3 3 2 1
1 1 2 1 2 2 0 -1 -2 -2 -1 -3 -3 -2 -4 -4 -3 -3 -1 -0 1 -2 3 -0 -1 -2 -2 1 5 1 1 2 -1 -0 0 8 -2 0 0 -2 3 -2 -1
3 2 1 0 0 0 1 1 1 -0 -0 -1 1 -0 -1 -2 -3 -4 -5 -4 -8 -2 -4 0 3 1 1 -0 -1 2 -2 4 -2 -1 -9 2 1 5 -1 1 2 -2 7
Height
5786 5786 5786 5785 5784 5783 5782 5781 5781 5782 5782 5782 5782 5783 5784 5786 5788 5790 5790 5792 5793 5793 5793 5795 5798 5798 5798 5798 5799 5800 5800 5800 5800 5801 5801 5801 5803 5803 5804 5805 5806 5807 5808
5775 5773 5774 5774 5774 5774 5774 5771 5770 5768 5769 5770 5772 5772 5774 5776 5779 5781 5783 5785 5785 5786 5788 5790 5791 5792 5793 5793 5793 5794 5794 5795 5796 5797 5797 5797 5798 5798 5799 5800 5801 5802 5803
5762 5762 5761 5760 5762 5763 5763 5762 5758 5757 5757 5758 5764 5760 5767 5767 5768 5772 5773 5777 5780 5779 5781 5783 5786 5787 5787 5788 5788 5789 5789 5791 5792 5792 5793 5793 5794 5794 5794 5795 5795 5797 5798
5748 5748 5748 5748 5749 5750 5751 5749 5746 5750 5745 5749 5754 5748 5752 5753 5758 5760 5763 5767 5772 5774 5773 5776 5777 5781 5781 5781 5783 5784 5785 5786 5787 5788 5788 5788 5789 5789 5790 5790 5791 5791 5792
5734 5734 5734 5733 5733 5736 5737 5736 5734 5735 5736 5739 5734 5742 5743 5739 5743 5751 5753 5755 5762 5766 5767 5768 5769 5773 5775 5775 5776 5778 5779 5780 5781 5782 5783 5783 5784 5784 5785 5785 5785 5785 5786
5717 5717 5717 5717 5718 5718 5720 5721 5720 5721 5723 5723 5730 5733 5739 5738 5740 5743 5741 5744 5750 5755 5759 5760 5761 5764 5768 5770 5771 5771 5772 5773 5775 5776 5777 5777 5778 5779 5779 5780 5780 5780 5779
5699 5698 5698 5700 5700 5701 5702 5703 5706 5705 5707 5705 5714 5718 5725 5730 5732 5735 5736 5735 5739 5743 5748 5750 5754 5755 5759 5762 5764 5764 5764 5767 5768 5769 5770 5772 5772 5772 5773 5774 5774 5774 5773
5676 5677 5677 5678 5680 5682 5684 5686 5686 5688 5689 5689 5697 5702 5711 5717 5718 5724 5727 5726 5730 5732 5735 5739 5742 5747 5748 5752 5755 5757 5758 5759 5761 5761 5763 5766 5766 5766 5766 5767 5767 5767 5768
5650 5651 5653 5653 5655 5657 5661 5665 5668 5669 5671 5671 5676 5685 5694 5703 5706 5711 5714 5715 5718 5722 5723 5728 5730 5737 5739 5741 5746 5747 5750 5752 5753 5754 5755 5757 5759 5759 5760 5760 5760 5760 5761
5629 5627 5626 5627 5629 5631 5637 5641 5644 5649 5651 5658 5656 5668 5676 5686 5692 5695 5699 5703 5705 5708 5714 5713 5717 5722 5730 5730 5735 5738 5740 5743 5745 5747 5748 5750 5751 5753 5753 5754 5754 5754 5754
5610 5608 5609 5609 5608 5611 5613 5617 5621 5626 5631 5637 5642 5650 5658 5667 5675 5680 5685 5690 5693 5697 5701 5701 5706 5708 5714 5719 5722 5726 5730 5733 5735 5738 5740 5741 5743 5745 5746 5748 5748 5748 5748
5594 5592 5591 5590 5590 5591 5595 5598 5601 5606 5612 5618 5625 5632 5641 5649 5659 5662 5669 5675 5680 5682 5683 5690 5692 5697 5700 5705 5709 5715 5719 5723 5724 5727 5729 5732 5734 5737 5738 5739 5740 5741 5741
5578 5575 5573 5573 5573 5573 5575 5579 5583 5589 5595 5602 5608 5616 5624 5632 5639 5645 5651 5659 5664 5669 5674 5678 5681 5683 5687 5690 5695 5702 5708 5712 5713 5717 5719 5721 5723 5726 5728 5730 5732 5733 5733
5565 5561 5558 5557 5556 5556 5558 5562 5567 5573 5580 5587 5592 5597 5606 5615 5620 5627 5634 5642 5648 5654 5660 5667 5668 5670 5674 5677 5683 5691 5695 5700 5701 5706 5709 5710 5713 5716 5719 5721 5723 5725 5726
5550 5546 5543 5542 5542 5543 5544 5546 5552 5557 5563 5570 5576 5581 5588 5597 5604 5612 5618 5625 5632 5640 5647 5657 5656 5657 5660 5666 5673 5678 5682 5687 5688 5691 5695 5697 5702 5706 5708 5712 5714 5716 5718
5540 5536 5533 5531 5530 5531 5530 5534 5539 5545 5550 5556 5561 5567 5573 5580 5587 5596 5603 5612 5619 5626 5632 5641 5643 5645 5648 5654 5663 5664 5669 5673 5678 5681 5683 5687 5688 5693 5697 5700 5704 5707 5708
5534 5531 5527 5526 5524 5523 5522 5526 5531 5535 5540 5544 5549 5554 5560 5568 5576 5583 5590 5598 5605 5612 5618 5627 5631 5634 5637 5642 5645 5650 5655 5659 5664 5667 5668 5672 5677 5679 5684 5688 5692 5696 5698
5532 5528 5526 5523 5522 5521 5522 5524 5527 5530 5534 5537 5540 5543 5548 5555 5562 5570 5576 5584 5597 5595 5604 5613 5617 5622 5626 5626 5630 5635 5640 5646 5650 5654 5655 5658 5661 5666 5671 5676 5680 5683 5686
5531 5527 5525 5523 5522 5521 5522 5522 5524 5526 5529 5531 5534 5536 5540 5545 5550 5557 5563 5571 5579 5583 5591 5600 5607 5609 5611 5614 5617 5621 5625 5631 5638 5642 5644 5645 5648 5655 5660 5663 5666 5671 5673
5530 5527 5525 5524 5523 5522 5522 5521 5521 5521 5523 5525 5528 5531 5533 5537 5541 5547 5553 5559 5566 5574 5580 5589 5589 5589 5594 5600 5605 5608 5614 5620 5623 5627 5631 5633 5637 5641 5648 5653 5656 5658 5663
5531 5528 5526 5525 5523 5521 5520 5519 5520 5521 5521 5522 5523 5525 5527 5529 5534 5538 5543 5549 5555 5562 5567 5571 5576 5577 5581 5587 5592 5597 5601 5604 5607 5613 5618 5620 5624 5632 5634 5639 5642 5646 5649
5536 5531 5529 5527 5525 5524 5522 5521 5520 5519 5519 5520 5521 5522 5524 5526 5528 5530 5535 5540 5545 5550 5555 5557 5561 5567 5571 5574 5579 5583 5586 5591 5595 5601 5606 5608 5611 5616 5620 5622 5628 5632 5635
5541 5538 5536 5533 5530 5528 5525 5523 5521 5519 5518 5517 5517 5519 5520 5521 5523 5525 5528 5532 5536 5540 5543 5545 5548 5552 5556 5561 5566 5568 5571 5574 5578 5585 5591 5593 5597 5601 5604 5606 5610 5616 5620
5545 5542 5540 5537 5534 5532 5528 5526 5524 5523 5521 5520 5518 5518 5518 5519 5520 5521 5522 5524 5526 5528 5530 5534 5537 5538 5540 5542 5548 5551 5556 5557 5562 5568 5572 5576 5581 5583 5587 5590 5592 5597 5602
5546 5544 5542 5539 5536 5534 5531 5529 5526 5524 5522 5521 5520 5518 5518 5517 5517 5518 5518 5518 5518 5518 5520 5521 5523 5524 5525 5528 5530 5533 5536 5538 5542 5548 5553 5557 5561 5566 5569 5572 5575 5578 5582
5546 5544 5540 5538 5535 5533 5531 5530 5528 5527 5524 5521 5519 5518 5517 5516 5515 5514 5514 5512 5512 5510 5510 5510 5510 5511 5512 5513 5514 5516 5519 5522 5524 5529 5533 5535 5539 5543 5546 5550 5554 5559 5562